{"data":{"norad_id":60024,"intl_designator":"2024-111J","name":"STARLINK-31990","alt_names":[],"object_type":"PAYLOAD","status":"ACTIVE","operator":null,"country":"US","launch_date":"2024-06-08","launch_site_code":"AFETR","launch_vehicle":null,"mission":null,"orbit_class":"UNKNOWN","rcs_meters":null,"size_class":null,"mass_kg":null,"dimensions":null,"purposes":["comms"],"wikipedia_slug":null,"has_3d_model":false,"image_url":null,"decayed_at":null,"tle_current":{"epoch":"2026-09-21T15:35:07.694304Z","epoch_age_seconds":78338,"freshness":"FRESH","line1":"1 60024U 24111J   26264.64939461 -.00000397  00000+0 -60770-6 0  9999","line2":"2 60024  53.1600 244.1502 0001504  89.7254 270.3921 15.34387196129050","mean_motion":15.34387196,"eccentricity":0.0001504,"inclination_deg":53.16,"raan_deg":244.1502,"arg_perigee_deg":89.7254,"mean_anomaly_deg":270.3921,"bstar":-6.077e-7,"rev_number":12905,"period_min":93.848541212671,"perigee_km":461.71242856225,"apogee_km":463.77016475388,"semimajor_km":6840.8782966581,"source":"CELESTRAK","updated_at":"2026-09-22T09:00:49.138978Z"}}}